Location: Unspecified
(32.2261°S, 0.0000°E)
Time: 13:56:42
(UTC+00:00)

S-56A Canister/Altair - All Passes

Search period start: 04 April 2026 00:00
Search period end: 14 April 2026 00:00
Orbit: 632 x 2485 km, 38.9° (Epoch: 28 March)

Date Brightness Start Highest point End Pass type
(mag) Time Alt. Az. Time Alt. Az. Time Alt. Az.
4 Apr - 01:34:00 10° WSW 01:40:07 77° SSE 01:49:29 10° ENE visible
4 Apr - 03:37:28 10° WSW 03:44:42 44° NNW 03:55:18 10° NE visible
4 Apr - 05:45:17 10° WNW 05:49:46 13° NW 05:54:53 10° NNW visible
4 Apr - 18:49:55 10° NNW 18:53:29 21° NE 18:56:51 10° E visible
4 Apr - 20:52:09 10° WNW 20:56:37 76° SSW 21:01:32 10° ESE visible
4 Apr - 22:56:11 10° WSW 23:00:41 41° S 23:06:34 10° ESE night (unlit)
5 Apr - 00:59:24 10° WSW 01:05:05 69° SSE 01:13:36 10° ENE visible
5 Apr - 03:02:40 10° WSW 03:09:29 49° NNW 03:19:40 10° NE visible
5 Apr - 05:09:15 10° WNW 05:14:25 16° NW 05:20:33 10° N visible
5 Apr - 18:15:32 10° N 18:18:44 17° NE 18:21:40 10° ENE visible
5 Apr - 20:17:19 10° WNW 20:21:53 90° SSW 20:26:34 10° ESE visible
5 Apr - 22:21:27 10° WSW 22:25:46 40° S 22:31:08 10° ESE night (unlit)
6 Apr - 00:24:50 10° WSW 00:30:06 61° SSE 00:37:46 10° E night (unlit)
6 Apr - 02:27:56 10° WSW 02:34:21 55° NNW 02:44:01 10° NE visible
6 Apr - 04:33:37 10° WNW 04:39:07 18° NW 04:45:52 10° N visible
6 Apr - 17:41:17 10° N 17:43:56 14° NE 17:46:21 10° ENE daylight
6 Apr - 19:42:26 10° WNW 19:47:10 75° NNE 19:51:41 10° ESE visible
6 Apr - 21:46:39 10° WSW 21:50:53 40° S 21:55:52 10° ESE night (unlit)
6 Apr - 23:50:14 10° WSW 23:55:10 53° SSE 00:02:02 10° E night (unlit)
7 Apr - 01:53:16 10° WSW 01:59:17 62° NNW 02:08:22 10° NE visible
7 Apr - 03:58:16 10° W 04:03:52 20° NW 04:10:58 10° N visible
7 Apr - 17:07:20 10° NNE 17:09:05 11° NE 17:10:42 10° NE daylight
7 Apr - 19:07:31 10° NW 19:12:27 61° NNE 19:16:51 10° ESE visible
7 Apr - 21:11:47 10° W 21:16:03 42° S 21:20:44 10° ESE visible
7 Apr - 23:15:38 10° WSW 23:20:16 47° SSE 23:26:24 10° E night (unlit)
8 Apr - 01:18:37 10° WSW 01:24:16 70° NNW 01:32:43 10° NE visible
8 Apr - 03:23:07 10° W 03:28:40 23° NW 03:35:56 10° N visible
8 Apr - 18:32:33 10° NW 18:37:43 50° NNE 18:42:03 10° ESE visible
8 Apr - 20:36:50 10° W 20:41:13 45° SSW 20:45:44 10° ESE visible
8 Apr - 22:40:59 10° WSW 22:45:23 42° S 22:50:53 10° E night (unlit)
9 Apr - 00:44:00 10° WSW 00:49:20 79° NNW 00:57:07 10° ENE night (unlit)
9 Apr - 02:48:05 10° W 02:53:31 25° NNW 03:00:48 10° NNE visible
9 Apr - 17:57:34 10° NW 18:02:57 41° NNE 18:07:18 10° E daylight
9 Apr - 20:01:47 10° W 20:06:25 51° SSW 20:10:50 10° ESE visible
9 Apr - 22:06:16 10° WSW 22:10:30 39° S 22:15:30 10° ESE night (unlit)
10 Apr - 00:09:25 10° WSW 00:14:26 90° SE 00:21:33 10° ENE night (unlit)
10 Apr - 02:13:10 10° W 02:18:26 28° NNW 02:25:36 10° NNE visible
10 Apr - 17:22:33 10° NNW 17:28:09 35° NNE 17:32:32 10° E daylight
10 Apr - 19:26:40 10° W 19:31:38 59° SSW 19:36:03 10° ESE visible
10 Apr - 21:31:29 10° WSW 21:35:39 37° S 21:40:15 10° ESE visible
10 Apr - 23:34:48 10° WSW 23:39:35 78° SSE 23:46:04 10° ENE night (unlit)
11 Apr - 01:38:21 10° W 01:43:25 31° NNW 01:50:24 10° NNE night (unlit)
11 Apr - 16:47:31 10° NNW 16:53:18 30° NNE 16:57:45 10° E daylight
11 Apr - 18:51:28 10° WNW 18:56:51 70° SSW 19:01:20 10° ESE visible
11 Apr - 20:56:35 10° WSW 21:00:47 36° S 21:05:08 10° ESE visible
11 Apr - 23:00:11 10° WSW 23:04:46 67° SSE 23:10:38 10° ENE night (unlit)
12 Apr - 01:03:34 10° W 01:08:28 35° NNW 01:15:11 10° NNE night (unlit)
12 Apr - 16:12:28 10° NNW 16:18:24 27° NNE 16:22:55 10° E daylight
12 Apr - 18:16:11 10° WNW 18:22:04 82° SSW 18:26:40 10° ESE visible
12 Apr - 20:21:35 10° WSW 20:25:56 36° S 20:30:09 10° ESE visible
12 Apr - 22:25:31 10° WSW 22:29:58 57° SSE 22:35:18 10° E night (unlit)
13 Apr - 00:28:50 10° W 00:33:34 41° NNW 00:39:58 10° NE night (unlit)
13 Apr - 15:37:26 10° NNW 15:43:26 24° NNE 15:48:01 10° E daylight
13 Apr - 17:40:50 10° WNW 17:47:16 85° NNE 17:52:01 10° ESE daylight
13 Apr - 19:46:27 10° WSW 19:51:05 38° S 19:55:17 10° ESE visible
13 Apr - 21:50:48 10° WSW 21:55:09 49° SSE 22:00:03 10° E night (unlit)
